Hourly Data Report for May 13, 2021

TORONTO CITY
ONTARIO
Current Station Operator: ECCC - MSC

43°40'00.000" N
79°24'00.000" W
112.50 m
6158355
71508
XTO

Download Data

Hourly Data (May 2021)
Hourly Data Report for May 13, 2021
TIME
LST
Temp Definition
°C
Dew Point Definition
°C
Rel Hum Definition
%
Precip. Amount Definition
mm

Wind Dir Definition
10's deg

Wind Spd Definition
km/h
Visibility Definition
km
Stn Press Definition
kPa
Hmdx Definition


Wind Chill Definition


Weather Definition


00:00 11.6 -2.9 36 0.0       101.23     LegendNANA
01:00 10.9 -3.3 37 0.0       101.22     LegendNANA
02:00 10.6 -3.2 38 0.0       101.19     LegendNANA
03:00 10.5 -3.3 38 0.0       101.18     LegendNANA
04:00 10.4 -3.8 37 0.0       101.18     LegendNANA
05:00 9.3 -3.3 41 0.0       101.20     LegendNANA
06:00 10.0 -2.7 41 0.0       101.22     LegendNANA
07:00 11.8 -1.9 38 0.0       101.25     LegendNANA
08:00 14.2 -0.6 36 0.0       101.28     LegendNANA
09:00 16.7 1.9 37 0.0       101.28     LegendNANA
10:00 18.2 1.0 32 0.0       101.28     LegendNANA
11:00 17.2 1.2 34 0.0       101.28     LegendNANA
12:00 18.0 0.3 30 0.0       101.24     LegendNANA
13:00 18.4 -0.8 27 0.0       101.19     LegendNANA
14:00 18.8 0.0 28 0.0       101.14     LegendNANA
15:00 18.6 -0.2 28 0.0       101.09     LegendNANA
16:00 18.6 -0.1 28 0.0       101.04     LegendNANA
17:00 18.2 -0.5 28 0.0       101.00     LegendNANA
18:00 17.8 0.1 30 0.0       100.97     LegendNANA
19:00 17.4 -0.8 29 0.0       100.98     LegendNANA
20:00 15.2 0.1 36 0.0       101.02     LegendNANA
21:00 16.4 0.1 33 0.0       101.08     LegendNANA
22:00 15.2 -0.6 34 0.0       101.10     LegendNANA
23:00 13.7 -0.3 38 0.0       101.11     LegendNANA

Notes on Data Quality.

Legend

  • E = Estimated
  • M = Missing
  • NA = Not Available*
  • [empty] = Indicates an unobserved value
Date modified: